[[{"header":{"parameterUnit":"m.s-1","parameterCategory":1,"la1":30.2991,"la2":30.254,"lo1":-89.0895,"lo2":-89.0444,"dy":0.0017,"dx":0.0017,"nx":28,"ny":28,"refTime":"2024-08-09T15:00:00:Z","depth":0,"parameterNumber":2,"parameterNumberName":"U-component_of_WINDS"},"data":[0,0,0,0,0,0,0,0,0,0,0,0,0,0,0,0,0,0,0,0,0,0,0,0,0,0,0,0,0,0,0,0,0,0,0,0,0,0,0,0,0,0,0,0,0,0,0,0,0,0,0,0,0,0,0,0,0,0,0.911,0.9111,0,0.9216,0.9218,0.9219,0.9301,0.9302,0.9302,0.9303,0.9415,0.9417,0.9419,0,0,0,0,0,0,0,0,0,0,0,0,0,0.8982,0.8984,0.911,0.9112,0.9113,0.9216,0.9218,0.9219,0.9301,0.9302,0.9302,0.9303,0.9414,0.9417,0.9419,0,0,0,0,0,0,0,0,0,0,0,0,0,0.9058,0.8984,0.911,0.9166,0.9172,0.9216,0.9218,0.9219,0.93,0.9302,0.9303,0.9304,0.9413,0.9416,0.942,0.9417,0,0,0.943,0.9431,0,0,0,0,0,0,0,0,0.9053,0.9062,0.9156,0.9162,0.9169,0.9246,0.9213,0.9286,0.93,0.9252,0.9303,0.9304,0.9358,0.9366,0.9383,0.9423,0.9427,0.943,0.9432,0.9434,0.9435,0,0,0,0,0,0,0,0.9048,0.9058,0.9152,0.9158,0.9165,0.9187,0.9199,0.9227,0.9297,0.9256,0.9262,0.9274,0.9362,0.938,0.9387,0.9429,0.943,0.9433,0.9435,0.9437,0.9472,0.9471,0,0,0,0,0,0,0.9034,0.9053,0.9149,0.9156,0.9113,0.9188,0.9202,0.922,0.9297,0.931,0.9272,0.9277,0.9374,0.9383,0.9391,0.9393,0.9434,0.9437,0.9439,0.9473,0.9472,0.9471,0,0,0,0,0,0,0.903,0.9041,0.9145,0.9106,0.9121,0.9189,0.921,0.9222,0.924,0.9309,0.9323,0.9278,0.9375,0.9386,0.941,0.9398,0.9438,0.9441,0.9474,0.9473,0.9471,0.9396,0,0,0,0,0,0,0.9026,0.904,0.9039,0.9105,0.9123,0.9161,0.9209,0.9223,0.9245,0.9252,0.9318,0.933,0.9377,0.9404,0.9413,0.9403,0.9444,0.9476,0.9474,0.9472,0.94,0.9392,0.9386,0,0,0,0,0,0.9022,0.9014,0.9038,0.9049,0.9123,0.916,0.917,0.9222,0.9244,0.9244,0.9289,0.9328,0.9398,0.9406,0.9417,0.9407,0.9477,0.9474,0.9472,0.9404,0.9394,0.9386,0,0,0,0,0,0,0.8945,0.9024,0.9051,0.9065,0.9105,0.9173,0.9175,0.9211,0.9246,0.9251,0.9316,0.9331,0.9347,0.938,0.9388,0.941,0.9442,0.9442,0.9387,0.9378,0.9371,0.9362,0.9447,0,0,0,0,0,0.8929,0.8952,0.902,0.9026,0.9044,0.9106,0.9124,0.9161,0.9206,0.9223,0.927,0.9312,0.9344,0.9363,0.9396,0.9406,0.9422,0.9405,0.9398,0.9392,0.939,0.9397,0.9391,0.9463,0.9463,0.9463,0,0,0.8898,0.8944,0.8954,0.9012,0.9047,0.907,0.912,0.9142,0.9159,0.9227,0.9252,0.9287,0.9339,0.9356,0.9366,0.9384,0.9374,0.9388,0.9383,0.9385,0.9394,0.9387,0.9381,0.9461,0.9461,0.9461,0,0,0.8852,0.8889,0.8897,0.8931,0.8984,0.9025,0.9027,0.909,0.9116,0.9142,0.9193,0.9216,0.9269,0.9304,0.9328,0.9296,0.9333,0.9305,0.9267,0.9273,0.9268,0.9263,0.9251,0.9245,0.9304,0.9304,0.9304,0,0.8806,0.8841,0.8897,0.8916,0.894,0.9002,0.9011,0.9042,0.9103,0.9118,0.9138,0.9206,0.9245,0.927,0.9262,0.9281,0.9285,0.9297,0.9264,0.926,0.9256,0.9245,0.924,0.93,0.93,0.9301,0.9301,0,0.8782,0.8806,0.8807,0.8862,0.8887,0.8901,0.896,0.8978,0.9013,0.9053,0.9078,0.9128,0.9172,0.9181,0.9216,0.9211,0.9221,0.9251,0.9285,0.9244,0.9235,0.9231,0.9294,0.9296,0.9297,0.9298,0,0,0.8689,0.8776,0.8775,0.8801,0.8864,0.8884,0.8902,0.8944,0.8957,0.8998,0.9014,0.9058,0.9086,0.9114,0.9154,0.916,0.913,0.919,0.9192,0.9176,0.9127,0.9103,0.9097,0.9156,0.9156,0.9155,0.9123,0,0.8652,0.8685,0.8736,0.8752,0.8775,0.8835,0.885,0.8891,0.8928,0.8954,0.8996,0.9026,0.9061,0.9078,0.9087,0.9132,0.9121,0.9135,0.9172,0.9172,0.9155,0.9093,0.9067,0.9034,0.912,0.9119,0.9119,0,0.8613,0.8648,0.8666,0.8727,0.8739,0.8751,0.8794,0.8818,0.8865,0.8893,0.8923,0.8967,0.8989,0.9021,0.9053,0.9061,0.908,0.9104,0.9104,0.9108,0.9142,0.9094,0.9025,0.9019,0.9114,0.9114,0.9114,0,0.8542,0.8595,0.8612,0.8633,0.8705,0.8712,0.8743,0.8792,0.8813,0.8851,0.8866,0.8907,0.8929,0.8959,0.9013,0.9031,0.9039,0.9075,0.9062,0.906,0.9059,0.9058,0.899,0.9073,0.9073,0.9073,0.9074,0,0.8494,0.8502,0.8581,0.8591,0.8603,0.8663,0.8673,0.871,0.8753,0.8772,0.8827,0.8844,0.8915,0.8941,0.8983,0.9002,0.9012,0.9035,0.9046,0.9029,0.9026,0.9041,0.9044,0.9072,0.9072,0.9073,0.9073,0,0.8416,0.8469,0.8492,0.8558,0.8575,0.858,0.8638,0.8651,0.8692,0.8716,0.8725,0.8789,0.8823,0.8879,0.893,0.8958,0.8969,0.8989,0.8952,0.8959,0.8942,0.8942,0.888,0.8875,0.8961,0.896,0.896,0,0.8381,0.8389,0.8455,0.8472,0.85,0.8526,0.8548,0.8608,0.8629,0.8685,0.8691,0.8728,0.8761,0.8812,0.8864,0.8903,0.8923,0.8899,0.8929,0.8912,0.8921,0.8919,0.892,0.8891,0.889,0.8889,0.8888,0,0.8313,0.8339,0.8369,0.8407,0.8432,0.8466,0.8503,0.8513,0.8582,0.8603,0.8637,0.8662,0.8713,0.8749,0.8796,0.8829,0.8869,0.8878,0.8877,0.8859,0.8837,0.8847,0.8932,0.8879,0.888,0.888,0.8881,0.8881,0.8255,0.8265,0.8313,0.8344,0.8378,0.8411,0.8426,0.8469,0.8498,0.8542,0.8577,0.8608,0.8657,0.8723,0.8754,0.878,0.8798,0.8797,0.8796,0.8795,0.8788,0.8834,0.8789,0.8789,0.8789,0.879,0.879,0,0.8189,0.8223,0.8251,0.83,0.8325,0.8361,0.8403,0.8422,0.8448,0.849,0.8521,0.856,0.8596,0.8651,0.8691,0.8701,0.8721,0.871,0.8709,0.8716,0.8769,0.8765,0.8693,0.8693,0.8693,0.8693,0.8693,0.8693,0.8158,0.8175,0.8207,0.8242,0.8277,0.8307,0.8328,0.8359,0.8392,0.8433,0.8462,0.8498,0.8545,0.8589,0.8624,0.8639,0.8651,0.8634,0.8655,0.8703,0.8712,0.8721,0.8717,0.8636,0.8636,0.8599,0.8599,0.8598]},{"header":{"parameterUnit":"m.s-1","parameterCategory":1,"la1":30.2991,"la2":30.254,"lo1":-89.0895,"lo2":-89.0444,"dy":0.0017,"dx":0.0017,"nx":28,"ny":28,"refTime":"2024-08-09T15:00:00:Z","depth":0,"parameterNumber":3,"parameterNumberName":"V-component_of_WINDS"},"data":[0,0,0,0,0,0,0,0,0,0,0,0,0,0,0,0,0,0,0,0,0,0,0,0,0,0,0,0,0,0,0,0,0,0,0,0,0,0,0,0,0,0,0,0,0,0,0,0,0,0,0,0,0,0,0,0,0,0,-0.437,-0.437,0,-0.4378,-0.4378,-0.4378,-0.4409,-0.4409,-0.441,-0.4411,-0.4418,-0.4418,-0.4417,0,0,0,0,0,0,0,0,0,0,0,0,0,-0.438,-0.438,-0.437,-0.437,-0.437,-0.4378,-0.4378,-0.4378,-0.4409,-0.4409,-0.441,-0.4411,-0.4418,-0.4418,-0.4417,0,0,0,0,0,0,0,0,0,0,0,0,0,-0.4381,-0.438,-0.437,-0.4386,-0.4388,-0.4378,-0.4378,-0.4378,-0.4408,-0.4409,-0.4411,-0.4411,-0.4418,-0.4418,-0.4417,-0.4392,0,0,-0.4415,-0.4415,0,0,0,0,0,0,0,0,-0.4381,-0.438,-0.4383,-0.4385,-0.4387,-0.4393,-0.4385,-0.4383,-0.4408,-0.44,-0.4411,-0.4412,-0.4409,-0.4409,-0.4408,-0.4392,-0.4392,-0.4415,-0.4414,-0.4414,-0.4414,0,0,0,0,0,0,0,-0.4381,-0.438,-0.4373,-0.4383,-0.4385,-0.4393,-0.4394,-0.4384,-0.4399,-0.4401,-0.4403,-0.4404,-0.441,-0.4409,-0.4409,-0.4393,-0.4415,-0.4414,-0.4414,-0.4414,-0.436,-0.4359,0,0,0,0,0,0,-0.4378,-0.438,-0.4373,-0.4373,-0.4386,-0.4392,-0.4393,-0.439,-0.4399,-0.4401,-0.4403,-0.4405,-0.441,-0.4409,-0.4409,-0.4383,-0.4414,-0.4413,-0.4413,-0.4361,-0.4359,-0.4358,0,0,0,0,0,0,-0.4378,-0.4377,-0.4372,-0.4377,-0.4377,-0.4391,-0.4387,-0.439,-0.4389,-0.44,-0.4403,-0.44,-0.441,-0.441,-0.4397,-0.4383,-0.4413,-0.4413,-0.4362,-0.436,-0.4359,-0.4328,0,0,0,0,0,0,-0.4379,-0.4377,-0.4368,-0.4377,-0.4377,-0.436,-0.4386,-0.4389,-0.4388,-0.4391,-0.4398,-0.44,-0.4411,-0.4398,-0.4396,-0.4383,-0.4412,-0.4363,-0.4361,-0.4359,-0.4331,-0.4326,-0.4322,0,0,0,0,0,-0.4379,-0.4358,-0.4367,-0.4366,-0.4365,-0.4359,-0.4359,-0.4373,-0.4386,-0.4377,-0.4385,-0.44,-0.4385,-0.4396,-0.4394,-0.4381,-0.4364,-0.4362,-0.4359,-0.4333,-0.4327,-0.4322,0,0,0,0,0,0,-0.4345,-0.4359,-0.437,-0.4351,-0.4353,-0.4364,-0.4353,-0.4366,-0.4364,-0.4367,-0.4384,-0.4385,-0.437,-0.4374,-0.4386,-0.4359,-0.4377,-0.4374,-0.4357,-0.4352,-0.4348,-0.4348,-0.4411,0,0,0,0,0,-0.4336,-0.433,-0.4342,-0.4324,-0.4325,-0.4339,-0.4336,-0.4347,-0.4351,-0.4352,-0.4358,-0.4361,-0.4358,-0.4354,-0.4351,-0.4331,-0.4334,-0.4321,-0.4317,-0.4313,-0.4311,-0.4304,-0.4299,-0.4351,-0.4351,-0.4351,0,0,-0.4316,-0.4323,-0.4318,-0.4318,-0.4321,-0.4315,-0.4339,-0.4331,-0.4327,-0.435,-0.4339,-0.4344,-0.4348,-0.4332,-0.4325,-0.4335,-0.4297,-0.431,-0.4307,-0.4307,-0.4301,-0.4296,-0.4291,-0.4349,-0.4349,-0.435,0,0,-0.4278,-0.4281,-0.4268,-0.4272,-0.4277,-0.4287,-0.4284,-0.4293,-0.4297,-0.4287,-0.4305,-0.43,-0.4292,-0.4296,-0.4296,-0.4261,-0.4275,-0.4259,-0.4237,-0.423,-0.4226,-0.4222,-0.4212,-0.4208,-0.4257,-0.4257,-0.4257,0,-0.4252,-0.4244,-0.426,-0.4252,-0.4252,-0.4273,-0.4261,-0.4264,-0.4267,-0.4268,-0.4278,-0.4271,-0.4275,-0.4262,-0.4253,-0.4252,-0.425,-0.4259,-0.4225,-0.4222,-0.4219,-0.4209,-0.4205,-0.4255,-0.4255,-0.4256,-0.4256,0,-0.4214,-0.4209,-0.4197,-0.4203,-0.4201,-0.4191,-0.4206,-0.4203,-0.4214,-0.4222,-0.4212,-0.4218,-0.4218,-0.4215,-0.4225,-0.4203,-0.421,-0.4222,-0.4241,-0.4212,-0.4203,-0.42,-0.4253,-0.4253,-0.4254,-0.4254,0,0,-0.4155,-0.417,-0.4166,-0.417,-0.4178,-0.4174,-0.4166,-0.4167,-0.4165,-0.4167,-0.4161,-0.4155,-0.4168,-0.4169,-0.4179,-0.4172,-0.4148,-0.4186,-0.4186,-0.4181,-0.4127,-0.4119,-0.4115,-0.4156,-0.4156,-0.4155,-0.4128,0,-0.4121,-0.4108,-0.4122,-0.4106,-0.4103,-0.4124,-0.4116,-0.4121,-0.4129,-0.4127,-0.4136,-0.4132,-0.4148,-0.4149,-0.4143,-0.4152,-0.4137,-0.4154,-0.4152,-0.4152,-0.4153,-0.411,-0.4101,-0.4075,-0.4124,-0.4124,-0.4123,0,-0.4079,-0.4081,-0.4065,-0.4077,-0.4076,-0.407,-0.4073,-0.407,-0.4077,-0.4083,-0.4085,-0.4098,-0.4092,-0.4109,-0.4101,-0.4112,-0.4112,-0.4116,-0.4116,-0.4118,-0.4137,-0.4113,-0.4067,-0.4063,-0.4118,-0.4118,-0.4119,0,-0.4041,-0.4039,-0.4031,-0.4033,-0.4046,-0.4041,-0.4046,-0.4054,-0.4054,-0.4057,-0.4058,-0.4059,-0.406,-0.4061,-0.4075,-0.4085,-0.4065,-0.4083,-0.4072,-0.4072,-0.4068,-0.4068,-0.4023,-0.4064,-0.4064,-0.4065,-0.4065,0,-0.4002,-0.3993,-0.4014,-0.4009,-0.3999,-0.4016,-0.4006,-0.4013,-0.402,-0.4017,-0.4034,-0.4031,-0.4048,-0.4047,-0.4057,-0.405,-0.405,-0.4056,-0.4059,-0.4056,-0.4055,-0.4057,-0.406,-0.4064,-0.4064,-0.4064,-0.4064,0,-0.3959,-0.3973,-0.3965,-0.3979,-0.3982,-0.3974,-0.3986,-0.3982,-0.3992,-0.3988,-0.3988,-0.4003,-0.4002,-0.4016,-0.4018,-0.4025,-0.4014,-0.402,-0.4013,-0.4015,-0.4004,-0.4006,-0.396,-0.3956,-0.3998,-0.3997,-0.3997,0,-0.3934,-0.3928,-0.3941,-0.3941,-0.3946,-0.3945,-0.3946,-0.3962,-0.3963,-0.3971,-0.3967,-0.3968,-0.397,-0.3969,-0.398,-0.3982,-0.3989,-0.3973,-0.3989,-0.3987,-0.3992,-0.3993,-0.3993,-0.397,-0.3969,-0.3969,-0.3969,0,-0.3891,-0.3899,-0.39,-0.3904,-0.3905,-0.3909,-0.3914,-0.3913,-0.3931,-0.3931,-0.3932,-0.3933,-0.3937,-0.3938,-0.3943,-0.3948,-0.3962,-0.3963,-0.3961,-0.3958,-0.3956,-0.3959,-0.4006,-0.3965,-0.3965,-0.3965,-0.3966,-0.3966,-0.3858,-0.3854,-0.3864,-0.3865,-0.3871,-0.3876,-0.3874,-0.3884,-0.3885,-0.3889,-0.3899,-0.3898,-0.3907,-0.3914,-0.3919,-0.3919,-0.3927,-0.3923,-0.3923,-0.3922,-0.3921,-0.3954,-0.392,-0.392,-0.392,-0.392,-0.392,0,-0.3817,-0.3825,-0.3826,-0.3834,-0.3835,-0.3848,-0.3855,-0.3855,-0.3855,-0.3862,-0.3864,-0.3866,-0.3868,-0.388,-0.3884,-0.3882,-0.3889,-0.3883,-0.3884,-0.3885,-0.3913,-0.3915,-0.3878,-0.3878,-0.3878,-0.3878,-0.3878,-0.3878,-0.3797,-0.3792,-0.3801,-0.3799,-0.3807,-0.3808,-0.3811,-0.3816,-0.3821,-0.3823,-0.3826,-0.3833,-0.3843,-0.3847,-0.385,-0.3854,-0.3855,-0.3848,-0.3853,-0.3879,-0.3883,-0.3887,-0.389,-0.3847,-0.3847,-0.3827,-0.3826,-0.3826]}]]